SB KEPS @ AMSAT $ORB26095.1 2Line Orbital Elements 26095.AMSAT QST de W1STR AMSAT Orbital Elements for Amateur Satellites in TLE Format From Orbital Analysis Office New England Sci-Tech STEM Education Center Natick MA April 05, 2026 To all radio amateurs These element sets describe the orbits of various satellites in use by the amateur radio community. For details see: www.amsat.org/keplerian-elements-formats/ A daily update of element sets is available at: www.amsat.org/tle/daily-bulletin.txt or without bulletin text: www.amsat.org/tle/dailytle.txt AO-07 1 07530U 74089B 26095.03893733 -.00000052 00000-0 -34430-4 0 9998 2 07530 101.9951 107.5125 0011868 270.6288 109.0426 12.53696937351351 UO-11 1 14781U 84021B 26095.19022028 .00002659 00000-0 27716-3 0 9990 2 14781 97.7996 61.6194 0009140 69.7980 290.4221 14.90606767246255 AO-27 1 22825U 93061C 26095.13867373 .00000158 00000-0 77285-4 0 9995 2 22825 98.6929 162.5617 0007547 320.7538 39.3096 14.30922415696555 FO-29 1 24278U 96046B 26095.11453191 .00000010 00000-0 49260-4 0 9991 2 24278 98.5334 313.9546 0348881 286.1171 70.1831 13.53270581463284 GO-32 1 25397U 98043D 26095.22203457 .00000113 00000-0 68983-4 0 9990 2 25397 99.0053 86.1499 0002305 76.7559 283.3876 14.24413734440941 ISS 1 25544U 98067A 26095.03712624 .00009326 00000-0 17854-3 0 9995 2 25544 51.6327 302.0967 0006295 273.6206 86.4063 15.48778120560417 NO-44 1 26931U 01043C 26095.23998755 .00000264 00000-0 12927-3 0 9995 2 26931 67.0498 72.9417 0006818 264.5411 95.4914 14.31926836280008 SO-50 1 27607U 02058C 26095.12210001 .00001899 00000-0 24059-3 0 9996 2 27607 64.5552 355.0194 0075478 275.8009 83.4496 14.82889051253628 CO-55 1 27844U 03031E 26094.97812161 .00000458 00000-0 21713-3 0 9992 2 27844 98.6769 104.4513 0010325 43.9369 316.2630 14.24289350181251 RS-22 1 27939U 03042A 26095.29683566 .00002116 00000-0 33479-3 0 9995 2 27939 98.3454 277.6023 0012122 135.5495 36.6553 14.73335037204811 CO-65 1 32785U 08021C 26095.24552648 .00007163 00000-0 45989-3 0 9999 2 32785 97.8239 75.2076 0007178 278.9265 81.1150 15.08760642974199 CO-66 1 32791U 08021J 26095.21828436 .00023732 00000-0 81081-3 0 9997 2 32791 97.7527 89.7798 0003015 158.9144 201.2220 15.30294749976128 RS-30 1 32953U 08025A 26095.26574293 .00000047 00000-0 26262-3 0 9999 2 32953 82.5058 40.7894 0020413 108.5712 251.7587 12.43177068810630 SRMSAT 1 37841U 11058D 26094.43294969 .00000492 00000-0 12313-3 0 9993 2 37841 19.9707 145.8850 0011920 111.8741 15.3851 14.11557506747382 ZACUBE-1 1 39417U 13066B 26095.13875085 .00006185 00000-0 48411-3 0 9990 2 39417 97.8146 57.0918 0044993 134.2019 226.2915 15.00595153669776 Delfi-N3xt 1 39428U 13066N 26095.20522836 .00010946 00000-0 96840-3 0 9992 2 39428 97.8353 15.6373 0077810 89.4398 271.5737 14.94132540663721 GOMX-1 1 39430U 13066Q 26095.25034567 .00002030 00000-0 31199-3 0 9990 2 39430 97.6535 300.2983 0128048 312.2182 46.8213 14.69206231659203 LO-74 1 39440U 13066AA 26095.30272076 .00005449 00000-0 51027-3 0 9995 2 39440 97.8853 44.0303 0056639 269.2046 90.2684 14.93272372666113 AO-73 1 39444U 13066AE 26095.18031921 .00011812 00000-0 74891-3 0 9992 2 39444 97.8239 65.1851 0039093 92.0712 268.4993 15.08440482668653 DTUSAT-2 1 40030U 14033W 26095.23213739 .00010156 00000-0 56173-3 0 9998 2 40030 98.0872 88.3901 0009721 118.2090 242.0122 15.14047737641645 LILACSAT-2 1 40908U 15049K 26095.26750574 .00022032 00000-0 40645-3 0 9999 2 40908 97.4751 129.4274 0008479 145.8025 214.3774 15.49096413584454 Horyu-4 1 41340U 16012D 26095.11559314 .00133296 00000-0 11041-2 0 9996 2 41340 30.9904 242.4599 0006115 40.4002 319.7106 15.68698457559259 Lapan A3 1 41603U 16040E 26095.27363580 .00004885 00000-0 15730-3 0 9995 2 41603 97.1492 93.8453 0008363 278.8137 81.2159 15.32624931543640 CAS-2T 1 41847U 16066G 26095.16667105 .00001305 00000-0 19233-3 0 9997 2 41847 98.3848 171.7229 0342094 351.3202 8.2165 14.44540754494257 TechnoSat 1 42829U 17042E 26095.23328044 .00004925 00000-0 35461-3 0 9999 2 42829 97.4206 255.7255 0017182 349.3380 10.7480 15.04521665475736 AO-91 1 43017U 17073E 26095.21432960 .00010483 00000-0 46996-3 0 9995 2 43017 97.4806 323.9554 0152904 219.8739 139.1180 15.11449824454366 S-Net D 1 43186U 18014G 26095.27795152 .00008225 00000-0 43139-3 0 9996 2 43186 97.5412 0.5433 0006580 271.9571 88.0908 15.15997585447719 S-Net B 1 43187U 18014H 26095.28799058 .00008114 00000-0 42593-3 0 9997 2 43187 97.5417 0.5375 0007250 265.9521 94.0883 15.15968096447717 S-Net A 1 43188U 18014J 26095.27717255 .00008231 00000-0 43161-3 0 9998 2 43188 97.5430 0.7222 0007029 266.6546 93.3883 15.16004603447713 S-Net C 1 43189U 18014K 26095.29146325 .00008054 00000-0 42284-3 0 9993 2 43189 97.5442 0.7998 0008519 258.0735 101.9542 15.15960440446263 Ten-Koh 1 43677U 18084G 26095.28009059 .00004271 00000-0 32530-3 0 9993 2 43677 98.0762 284.5779 0009709 5.5905 354.5425 15.02616664405219 PO-101 1 43678U 18084H 26095.27143194 .00002747 00000-0 22509-3 0 9993 2 43678 98.1036 288.4008 0013885 49.4829 310.7600 15.00107256405281 QO-100 1 43700U 18090A 26095.21711404 .00000145 00000-0 00000-0 0 9994 2 43700 0.0180 211.3874 0001276 182.2664 263.8520 1.00269802 26941 MinXSS-2 1 43758U 18099A 26095.14070552 .00041074 00000-0 94983-3 0 9992 2 43758 97.4580 169.5394 0009014 164.8296 195.3223 15.42336101402859 AO-95 1 43770U 18099N 26095.15612195 .00015748 00000-0 62959-3 0 9999 2 43770 97.4453 155.7354 0007748 238.2885 121.7598 15.25168063402081 SNUSat 2 1 43782U 18099AA 26095.12368804 .00010931 00000-0 49901-3 0 9995 2 43782 97.4134 149.6635 0010599 183.1429 176.9741 15.20722771401925 SnugLite 1 43784U 18099AC 26095.11283757 .00016264 00000-0 64197-3 0 9998 2 43784 97.3939 150.1718 0003452 160.2365 199.9007 15.25608015402170 ITASat 1 1 43786U 18099AE 26095.14371021 .00009440 00000-0 46480-3 0 9998 2 43786 97.4109 148.1347 0011392 243.3251 116.6817 15.18135630401822 EAGLET 1 1 43790U 18099AJ 26095.08823257 .00006719 00000-0 39027-3 0 9994 2 43790 97.4308 146.6935 0010069 233.3142 126.7164 15.12388210401287 ESEO 1 43792U 18099AL 26094.86922180 .00002978 00000-0 21938-3 0 9991 2 43792 97.4037 135.3771 0011305 219.2215 140.8193 15.04015879400781 JO-97 1 43803U 18099AX 26095.16009435 .00022732 00000-0 75054-3 0 9995 2 43803 97.4195 157.8469 0006753 159.0119 201.1401 15.31389189402443 Suomi 100 1 43804U 18099AY 26095.10212416 .00016125 00000-0 61315-3 0 9999 2 43804 97.4257 155.8341 0010797 170.9262 189.2174 15.26805649402265 ISAT 1 43879U 18111D 26094.37209896 .00098406 00000-0 14674-2 0 9999 2 43879 97.5906 24.5877 0005651 167.6435 192.4958 15.54725126399660 UWE-4 1 43880U 18111E 26095.23545195 .00038350 00000-0 90054-3 0 9991 2 43880 97.5857 20.5234 0006878 210.6830 149.4016 15.41908824399526 Sparrow 1 43881U 18111F 26095.28356725 .00108274 00000-0 13504-2 0 9993 2 43881 97.6117 30.1918 0002862 159.3120 200.8252 15.59521399399962 Prox-1 1 44339U 19036A 26095.11409111 .00016387 00000-0 16736-2 0 9992 2 44339 23.9949 241.7012 0005766 272.8390 87.1449 14.88895502362568 Taurus 1 1 44530U 19059C 26095.29000473 .00005302 00000-0 86682-3 0 9990 2 44530 98.6347 255.6665 0009381 174.7233 185.4072 14.71276586347927 TO-108 1 44881U 19093C 26095.27678744 .00001604 00000-0 18754-3 0 9993 2 44881 97.7568 169.2798 0012860 332.5768 27.4767 14.86403020340583 RS-44 1 44909U 19096E 26095.21886984 .00000015 00000-0 23821-4 0 9995 2 44909 82.5256 28.1874 0216768 315.2466 43.1321 12.79747781293015 SALSAT 1 46495U 20068K 26095.25293326 .00010667 00000-0 38421-3 0 9999 2 46495 97.8868 93.9405 0009585 187.7921 172.3170 15.28731219304218 CSS (TIANHE-1) 1 48274U 21035A 26095.26060825 .00034768 00000-0 38992-3 0 9999 2 48274 41.4682 46.3215 0003546 128.6293 231.4864 15.61939070281765 CUTE 1 49263U 21088D 26095.21621453 .00088887 00000-0 70326-3 0 9999 2 49263 97.4185 188.9732 0003621 215.8788 144.2231 15.71067886251036 TeikyoSat 4 1 49396U 21102B 26095.06401827 .00002476 00000-0 15918-3 0 9993 2 49396 97.3747 127.3760 0012149 176.7358 183.3953 15.09248638241690 Z-Sat 1 49399U 21102E 26095.22555752 .00005353 00000-0 26768-3 0 9993 2 49399 97.3406 132.7626 0017959 137.8363 222.4256 15.17709159242370 KOSEN 1 1 49402U 21102H 26095.10865292 .00010250 00000-0 40187-3 0 9991 2 49402 97.3273 138.7085 0015723 105.3412 254.9566 15.25831854242870 HO-113 1 50466U 21131B 26095.30147233 .00000903 00000-0 29291-3 0 9992 2 50466 98.4952 188.1021 0003291 332.4022 27.6991 14.41287823224611 SNUGLITE 2 1 52899U 22065F 26095.11883948 .00001657 00000-0 32394-3 0 9995 2 52899 98.2085 240.1283 0006332 249.0075 111.0451 14.64205533200309 UmKA 1 (RS40S) 1 57172U 23091G 26095.23749839 .00009222 00000-0 42998-3 0 9994 2 57172 97.5118 154.2340 0013255 21.3976 338.7811 15.20017919152923 CubeBel-2 (EU11S) 1 57175U 23091K 26095.17948067 .00018212 00000-0 67804-3 0 9996 2 57175 97.5115 157.8166 0010233 22.3266 337.8416 15.27486976153151 RS-38S 1 57189U 23091Z 26095.12959421 .00023393 00000-0 71612-3 0 9990 2 57189 97.5142 163.2622 0006499 340.6991 19.4004 15.33808223153486 SONATE-2 1 59112U 24043Q 26095.15147432 .00048232 00000-0 75266-3 0 9998 2 59112 97.5444 241.4039 0007678 112.3720 247.8347 15.53658637116530 GRBBeta 1 60237U 24128C 26095.26689174 .00004909 00000-0 34013-3 0 9996 2 60237 61.9884 111.9919 0049002 119.2711 241.3293 15.06070921 95283 Curium One 1 60242U 24128H 26095.28801583 .00010378 00000-0 60706-3 0 9999 2 60242 61.9771 103.7395 0048385 115.6922 244.9181 15.11378384 95430 ROBUSTA-3A 1 60243U 24128J 26095.14689192 .00008178 00000-0 49164-3 0 9995 2 60243 61.9848 106.3145 0049359 113.0385 247.5926 15.10579583 95388 CatSat 1 60246U 24125J 26095.02796529 .00057106 00000-0 94800-3 0 9997 2 60246 97.2167 306.9622 0026810 94.5925 265.8391 15.51510899 96026 HYPERVIEW-1G (RS66S) 1 61772U 24199AP 26095.25001809 .00096507 00000-0 10871-2 0 9991 2 61772 97.3018 332.0816 0008286 168.3225 191.8227 15.62196194123243 AO-123 1 61781U 24199AY 26095.28998897 .00010806 00000-0 32351-3 0 9992 2 61781 97.3103 324.6312 0013381 203.6809 156.3820 15.34616342122749 JINJUSat 1B 1 63210U 25052A 26095.20447852 .00022192 00000-0 73541-3 0 9999 2 63210 97.4080 351.9573 0003361 21.7321 338.4063 15.31291471 58929 NUSHSAT 1 1 63211U 25052B 26095.22174468 .00026227 00000-0 81722-3 0 9995 2 63211 97.4059 352.3199 0003460 26.7831 333.3589 15.33233288 58950 TEVEL2-4 1 63213U 25052D 26094.96024818 .00022675 00000-0 73221-3 0 9998 2 63213 97.3985 351.3418 0003567 46.7949 313.3590 15.32120609 58896 TEVEL2-5 1 63214U 25052E 26095.16935114 .00023697 00000-0 76795-3 0 9996 2 63214 97.3978 351.5171 0003551 46.4233 313.7303 15.31996691 58924 TEVEL2-6 1 63215U 25052F 26095.17987653 .00024715 00000-0 80172-3 0 9999 2 63215 97.3982 351.5133 0003597 45.6011 314.5525 15.31956649 58927 TEVEL2-1 1 63217U 25052H 26095.18563353 .00024135 00000-0 79409-3 0 9996 2 63217 97.3954 351.2240 0004065 54.5644 305.5977 15.31503353 58916 TEVEL2-3 1 63218U 25052J 26094.65986222 .00026749 00000-0 87910-3 0 9991 2 63218 97.3959 350.7137 0004158 54.5708 305.5921 15.31518198 58838 TEVEL2-2 1 63219U 25052K 26095.18623899 .00024243 00000-0 79749-3 0 9997 2 63219 97.3956 351.2258 0004066 54.8675 305.2947 15.31508029 58916 TEVEL2-9 1 63237U 25052AD 26094.94328454 .00021003 00000-0 73068-3 0 9998 2 63237 97.4021 350.5057 0007820 54.2343 305.9623 15.29701759 58826 TEVEL2-7 1 63238U 25052AE 26095.23318366 .00021619 00000-0 75714-3 0 9996 2 63238 97.4020 350.7381 0007953 53.7009 306.4964 15.29477037 58865 TEVEL2-8 1 63239U 25052AF 26095.24057536 .00021953 00000-0 76924-3 0 9992 2 63239 97.4020 350.7250 0007948 54.4340 305.7640 15.29456427 58864 HYDRA-W 1 63490U 25052BL 26095.21934350 .00621630 00000-0 30872-2 0 9995 2 63490 97.3842 357.8641 0005509 104.0662 256.1218 15.80330466 59352 HADES-ICM (SO-125) 1 63492U 25052BN 26095.16836670 .00274628 00000-0 25045-2 0 9994 2 63492 97.3880 356.7473 0006118 76.3003 283.8939 15.67014218 59271 SPIRONE 1 66657U 25274H 26095.28855735 .00004667 00000-0 45108-3 0 9999 2 66657 97.7462 25.6514 0010434 255.1332 104.8732 14.93249730 19347 K-HERO 1 66660U 25274L 26094.77807391 .00003370 00000-0 32356-3 0 9992 2 66660 97.7468 25.2546 0012468 263.0209 96.9593 14.93686634 19274 SNUGLITE-III DURI 1 66661U 25274M 26095.23748238 .00002875 00000-0 27631-3 0 9998 2 66661 97.7467 25.7244 0012982 262.3325 97.6421 14.93761201 19346 SilverSat 1 66909U 98067XV 26094.78704661 .00565248 00000-0 18876-2 0 9992 2 66909 51.6184 289.8512 0009050 258.4718 101.5271 15.88187528 19315 SAKHACUBE-CHOLBON 1 67290U 25313AU 26095.15719690 .00014653 00000-0 61465-3 0 9992 2 67290 97.3963 171.1693 0008252 247.9715 112.0646 15.23560043 14850 RS95S (QMR-KWT-2) 1 67291U 25313AV 26095.26426163 .00019330 00000-0 78929-3 0 9995 2 67291 97.3962 171.3301 0008092 245.4704 114.5690 15.24409930 14877 Ten-Koh2 1 68261U 25241B 26095.00342734 .00010618 00000-0 45971-3 0 9997 2 68261 51.6396 307.7582 0004644 254.3593 105.6872 15.22922678 3754 IO-86 1 40931U 25360.30710720 .00000000 00000-0 12800-3 0 00 2 40931 6.0006 332.5373 0012733 338.8432 8.1437 14.79075515 01 HADES-SA/SpinnyONE 1 71958C 26067D 26089.49758863 -.00009989 00000+0 -51655-3 0 00 2 71958 97.4320 49.1630 0007687 13.6276 327.6456 15.16316797 13 LILIUM-4 1 71922C 26067AC 26089.50133053 -.00014632 00000+0 -74472-3 0 04 2 71922 97.4497 49.1617 0004341 5.9603 355.7042 15.16896692 16 PARUS-6U1 1 71919C 26067Q 26089.49893470 -.00013781 00000+0 -70600-3 0 07 2 71919 97.4488 49.1589 0005235 359.3198 349.2677 15.16662579 15 JACK-002 1 71927C 26067C 26089.49750414 -.00013014 00000+0 -63498-3 0 02 2 71927 97.4500 49.1567 0002681 143.8886 196.8842 15.18377566 18 SAL-E 1 71904C 26067L 26089.49846595 -.00007742 00000+0 -39877-3 0 08 2 71904 97.4412 49.1602 0006442 8.2554 337.7892 15.16462720 16 DISCO-2 1 71908C 26067U 26089.49955160 -.00011726 00000+0 -58129-3 0 09 2 71908 97.4541 49.1588 0000289 282.0588 69.8834 15.17826845 10 /EX